Change the Weather History Date:

Sunday, April 27, 2014

  Actual Average Record
Temperature  
Mean Temperature 42 °F 49 °F  
Max Temperature 46 °F 62 °F 85 °F (1977)
Min Temperature 37 °F 37 °F 16 °F (1909)
Degree Days  
Heating Degree Days 23 16  
Month to date heating degree days 653 590  
Since 1 July heating degree days 8868 8105  
Cooling Degree Days 0 0  
Month to date cooling degree days 0 0  
Year to date cooling degree days 0 0  
Moisture  
Dew Point 37 °F    
Average Humidity 80    
Maximum Humidity 100    
Minimum Humidity 60    
Precipitation  
Precipitation 0.17 in 0.08 in 1.58 in (1938)
Month to date precipitation 0.40 1.77  
Year to date precipitation 1.80 3.96  
Snow  
Snow 0.00 in - - ()
Month to date snowfall 4.0  
Since 1 July snowfall 28.2  
Snow Depth 0.00 in    
Sea Level Pressure  
Sea Level Pressure 29.53 in    
Wind  
Wind Speed 21 mph (East)    
Max Wind Speed 33 mph    
Max Gust Speed 46 mph    
Visibility 6 miles    
Events Rain , Thunderstorm    
T = Trace of Precipitation, MM = Missing Value Source: NWS Daily Summary

Daily Weather History Graph

Daily Weather History Graph

Search for Another Location

Airport or City:

Trip Planner

Search our weather history database for the weather conditions in past years. The results will help you decide how hot, cold, wet, or windy it might be!

Date:

Astronomy

Apr. 27, 2014 Rise Set
Actual Time 6:24 AM CDT 8:29 PM CDT
Civil Twilight 5:52 AM CDT 9:01 PM CDT
Nautical Twilight 5:13 AM CDT 9:40 PM CDT
Astronomical Twilight 4:30 AM CDT 10:23 PM CDT
Moon 5:30 AM CDT (4/27) 7:00 PM CDT (4/27)
Length of Visible Light 15h 08m
Length of Day
14h 04m
Waning Crescent, 3% of the Moon is Illuminated
Apr 27
Waning Crescent
Apr 29
New
May 6
First Quarter
May 14
Full
May 21
Last Quarter

Hourly Weather History & Observations

Time (CDT) Temp. Windchill Dew Point Humidity Pressure Visibility Wind Dir Wind Speed Gust Speed Precip Events Conditions
12:30 AM 46.0 °F 38.3 °F 34.0 °F 63% 29.65 in 10.0 mi East 20.7 mph 41.4 mph N/A Thunderstorm Overcast
12:45 AM 46.0 °F 38.0 °F 34.0 °F 63% 29.66 in 10.0 mi East 21.9 mph 36.8 mph N/A   Overcast
12:53 AM 46.0 °F 38.5 °F 34.0 °F 63% 29.67 in 10.0 mi East 19.6 mph 36.8 mph N/A   Overcast
1:53 AM 45.0 °F 36.6 °F 35.1 °F 68% 29.63 in 10.0 mi East 21.9 mph 34.5 mph N/A   Overcast
2:53 AM 43.0 °F 34.0 °F 36.0 °F 76% 29.57 in 10.0 mi East 21.9 mph 39.1 mph N/A   Overcast
3:29 AM 43.0 °F 33.8 °F 35.1 °F 74% 29.53 in 10.0 mi East 23.0 mph 40.3 mph N/A Thunderstorm Overcast
4:10 AM 41.0 °F 30.9 °F 35.1 °F 79% 29.57 in 10.0 mi ESE 24.2 mph 39.1 mph 0.00 in Rain , Thunderstorm Light Rain
4:21 AM 41.0 °F 30.7 °F 35.1 °F 79% 29.59 in 10.0 mi ESE 25.3 mph 38.0 mph 0.00 in Rain , Thunderstorm Light Thunderstorms and Rain
4:53 AM 39.0 °F 29.0 °F 36.0 °F 89% 29.63 in 4.0 mi East 20.7 mph 40.3 mph 0.07 in Rain , Thunderstorm Heavy Thunderstorms and Rain
5:34 AM 37.9 °F 26.1 °F 35.1 °F 89% 29.56 in 10.0 mi East 27.6 mph 43.7 mph 0.09 in Rain , Thunderstorm Light Rain
5:42 AM 39.0 °F 29.3 °F 36.0 °F 89% 29.57 in 10.0 mi East 19.6 mph 40.3 mph 0.09 in   Overcast
5:53 AM 39.0 °F 28.0 °F 35.1 °F 86% 29.60 in 10.0 mi East 25.3 mph 42.6 mph 0.09 in   Overcast
6:11 AM 37.9 °F 26.1 °F 35.1 °F 89% 29.57 in 10.0 mi East 27.6 mph 41.4 mph N/A   Overcast
6:25 AM 37.9 °F 26.8 °F 35.1 °F 89% 29.57 in 10.0 mi East 24.2 mph 41.4 mph N/A   Overcast
6:53 AM 37.9 °F 27.6 °F 35.1 °F 89% 29.59 in 10.0 mi East 20.7 mph 40.3 mph N/A   Overcast
7:53 AM 37.0 °F 25.6 °F 34.0 °F 89% 29.59 in 10.0 mi East 24.2 mph 40.3 mph N/A   Overcast
8:41 AM 37.9 °F 26.8 °F 34.0 °F 86% 29.56 in 10.0 mi East 24.2 mph 38.0 mph N/A   Overcast
8:53 AM 37.9 °F 27.6 °F 34.0 °F 86% 29.59 in 10.0 mi East 20.7 mph 39.1 mph N/A   Overcast
9:23 AM 37.0 °F 25.4 °F 34.0 °F 89% 29.56 in 10.0 mi East 25.3 mph 36.8 mph N/A   Overcast
9:53 AM 37.9 °F 27.6 °F 34.0 °F 86% 29.58 in 10.0 mi East 20.7 mph 35.7 mph N/A   Overcast
11:18 AM 37.9 °F 27.3 °F 36.0 °F 93% 29.52 in 8.0 mi ESE 21.9 mph 40.3 mph N/A   Overcast
11:53 AM 37.9 °F 26.1 °F 37.0 °F 97% 29.55 in 5.0 mi East 27.6 mph 38.0 mph N/A   Overcast
12:53 PM 39.0 °F 27.6 °F 37.0 °F 93% 29.53 in 4.0 mi East 27.6 mph 38.0 mph N/A   Overcast
1:04 PM 39.0 °F 29.6 °F 37.9 °F 96% 29.49 in 2.0 mi ESE 18.4 mph 38.0 mph N/A   Overcast
1:16 PM 39.0 °F 28.0 °F 37.9 °F 96% 29.50 in 6.0 mi East 25.3 mph 35.7 mph N/A   Overcast
1:31 PM 39.0 °F 28.0 °F 37.9 °F 96% 29.51 in 3.0 mi ESE 25.3 mph 38.0 mph N/A Thunderstorm Overcast
1:40 PM 39.0 °F 29.9 °F 37.9 °F 96% 29.51 in 2.5 mi ESE 17.3 mph 35.7 mph N/A Thunderstorm Overcast
1:53 PM 39.0 °F 30.3 °F 37.9 °F 96% 29.54 in 2.5 mi East 16.1 mph 31.1 mph N/A Thunderstorm Overcast
2:01 PM 39.9 °F 30.0 °F 37.9 °F 93% 29.50 in 5.0 mi East 21.9 mph 32.2 mph N/A Thunderstorm Overcast
2:11 PM 39.0 °F 29.0 °F 37.9 °F 96% 29.48 in 4.0 mi East 20.7 mph 34.5 mph 0.00 in Rain , Thunderstorm Light Thunderstorms and Rain
2:20 PM 39.9 °F 30.5 °F 39.0 °F 97% 29.48 in 2.5 mi East 19.6 mph 29.9 mph 0.00 in Thunderstorm Overcast
2:31 PM 39.9 °F 30.5 °F 39.0 °F 97% 29.49 in 1.8 mi ESE 19.6 mph 36.8 mph 0.00 in Thunderstorm Overcast
2:36 PM 39.9 °F 30.8 °F 39.9 °F 100% 29.50 in 2.5 mi ESE 18.4 mph 33.4 mph 0.00 in   Overcast
3:03 PM 39.9 °F 30.0 °F 39.0 °F 97% 29.47 in 1.2 mi East 21.9 mph 31.1 mph N/A   Overcast
3:31 PM 39.9 °F 29.7 °F 39.0 °F 97% 29.46 in 0.8 mi East 23.0 mph 34.5 mph N/A   Overcast
3:53 PM 39.9 °F 30.0 °F 39.0 °F 97% 29.50 in 0.8 mi East 21.9 mph 32.2 mph N/A   Overcast
4:18 PM 39.9 °F 29.5 °F 39.0 °F 97% 29.46 in 1.0 mi East 24.2 mph 34.5 mph N/A   Overcast
4:37 PM 39.9 °F 30.0 °F 39.0 °F 97% 29.46 in 2.0 mi East 21.9 mph 35.7 mph 0.00 in Rain Light Rain
4:53 PM 39.9 °F 31.1 °F 39.0 °F 97% 29.47 in 3.0 mi East 17.3 mph 33.4 mph 0.00 in Rain Light Rain
5:40 PM 39.9 °F 29.5 °F 39.0 °F 97% 29.45 in 2.5 mi East 24.2 mph 33.4 mph 0.01 in Rain Rain
5:49 PM 39.2 °F 29.8 °F 39.2 °F 100% 29.45 in 6.0 mi East 18.4 mph 32.2 mph 0.01 in Rain Light Rain
5:53 PM 39.9 °F 30.0 °F 39.0 °F 97% 29.48 in 8.0 mi East 21.9 mph 36.8 mph 0.01 in Rain Light Rain
6:29 PM 41.0 °F 32.8 °F 39.0 °F 93% 29.48 in 10.0 mi East 16.1 mph 26.5 mph 0.00 in   Overcast
6:50 PM 41.0 °F 32.2 °F 39.2 °F 93% 29.47 in 9.0 mi East 18.4 mph 28.8 mph 0.00 in   Overcast
6:53 PM 41.0 °F 33.1 °F 39.9 °F 96% 29.51 in 9.0 mi East 15.0 mph 28.8 mph 0.00 in   Overcast
7:53 PM 41.0 °F 32.5 °F 39.9 °F 96% 29.51 in 5.0 mi East 17.3 mph 29.9 mph N/A   Overcast
8:53 PM 39.9 °F 30.8 °F 39.0 °F 97% 29.51 in 2.5 mi East 18.4 mph 28.8 mph N/A   Overcast
9:21 PM 39.9 °F 30.5 °F 39.9 °F 100% 29.47 in 3.0 mi East 19.6 mph 31.1 mph N/A   Overcast
9:53 PM 41.0 °F 32.5 °F 39.9 °F 96% 29.50 in 5.0 mi East 17.3 mph 29.9 mph N/A   Overcast
10:53 PM 41.0 °F 32.8 °F 39.9 °F 96% 29.49 in 8.0 mi ESE 16.1 mph 32.2 mph N/A   Overcast
11:08 PM 41.0 °F 31.9 °F 39.9 °F 96% 29.46 in 8.0 mi ESE 19.6 mph 34.5 mph N/A   Overcast
11:41 PM 41.0 °F 31.6 °F 39.9 °F 96% 29.45 in 5.0 mi East 20.7 mph 31.1 mph N/A   Overcast